World > North America > United States > Florida

Coconut Creek, Florida Regional Weather

Lat: 26.27N, Lon: 80.19W
Wx Zone: FLZ072
Feedback

Coconut Creek, FL Regional Weather

Expires:201909161300;;875239
ASUS42 KTBW 161218
RWRFL 
FLORIDA REGIONAL WEATHER ROUNDUP
NATIONAL WEATHER SERVICE TAMPA BAY RUSKIN FL
800 AM EDT MON SEP 16 2019

NOTE: "FAIR" INDICATES FEW OR NO CLOUDS BELOW 12,000 FEET WITH NO
SIGNIFICANT WEATHER AND/OR OBSTRUCTIONS TO VISIBILITY.


FLZ067-068-071>074-168-172>174-161300-
SOUTHEAST FLORIDA 
  
CITY           SKY/WX    TMP DP  RH WIND       PRES   REMARKS
W PALM BEACH   FAIR      78  75  90 W10       29.95R                  
BOCA RATON     SUNNY     79  75  89 W7        29.95R                  
FT LAUDER-EXEC FAIR      78  75  90 W7        29.96R                  
FT LAUDERDALE  FAIR      79  75  87 NW6       29.95R                  
POMPANO BEACH  FAIR      79  75  87 W7        29.96R                  
PEMBROKE PINES FAIR      80  75  84 NW6       29.98R                  
OPA LOCKA      FAIR      80  76  87 NW7       29.97R                  
MIAMI          FAIR      81  74  79 NW7       29.97R                  
WEST KENDALL   FAIR      79  77  94 W3        29.97R                  
HOMESTEAD      FAIR      80  77  91 CALM      29.97R                  

STATION/POSITION SKY/WX   TEMP    WIND        PRES    WAVE   SWELL
                          AIR SEA DIR/SP/G            HT/PER HT/PER
                          (F)     (DEG/KT/KT) (MB)    (FT/S) (FT/S)
VIRGINIA KEY               81 87  290/  4/  8 1014.2R
LAKE WORTH                 78 85  270/  7/ 10 1015.2R
FOWEY ROCKS                81 85  300/  8

SKY/WX - Weather  TMP - Temperature  DP - Dew Point  RH - Relative Humidity
WIND - Wind Direction/Speed PRES - Barometric Pressure VSB - Visibility
WCI - Wind Chill Index E13G22 Wind - East Wind 13 mph/Gusts of 22 mph